Вернуться в каталог

COSMOS 2251 DEB

АктивенLEO
NORAD 34015·DEBRIS·🇷🇺 Russia

Запущен Jun 16, 1993 с Plesetsk Cosmodrome

Loading…

Ближайшие Пролёты (ближайшие 24 часа)

TLE

СвежийSource: Space-Track

Эпоха: Sep 14, 2026, 06:05 UTC

1 34015U 93036HA  26257.25392684  .00002698  00000-0  54165-3 0  9994
2 34015  74.0258 352.2746 0021076  16.2851  14.3019 14.62054404925553

Отслеживайте COSMOS 2251 DEB в реальном времени с AllMySat

Download on the App Store